| time (UTC) | temp F | wind direction | speed MPH | gust MPH | rain 1hr in | rain 24hr in | rain mn in | humidity % | barometer mb |
| 20260504012124 | 37 | 22 | 0.0 | 0.0 | 0.00 | 0.01 | 0.01 | 69 | 1012.1 |
| 20260504011124 | 38 | 22 | 0.0 | 0.0 | 0.00 | 0.01 | 0.01 | 67 | 1011.9 |
| 20260504011025 | 38 | 22 | 0.0 | 0.0 | 0.00 | 0.01 | 0.01 | 67 | 1012.0 |
| 20260504010123 | 39 | 22 | 0.0 | 0.0 | 0.00 | 0.01 | 0.01 | 65 | 1011.9 |
| 20260504010043 | 39 | 22 | 0.0 | 0.0 | 0.00 | 0.01 | 0.01 | 64 | 1011.8 |
| 20260504005024 | 40 | 22 | 0.0 | 0.0 | 0.00 | 0.01 | 0.01 | 62 | 1011.7 |
| 20260504004124 | 40 | 22 | 0.0 | 0.0 | 0.00 | 0.01 | 0.01 | 58 | 1011.6 |
| 20260504003140 | 41 | 22 | 0.0 | 0.0 | 0.00 | 0.01 | 0.01 | 57 | 1011.6 |
| 20260504002226 | 42 | 22 | 0.0 | 0.0 | 0.00 | 0.01 | 0.01 | 53 | 1011.5 |
| 20260504001226 | 44 | 22 | 0.0 | 1.0 | 0.00 | 0.01 | 0.01 | 50 | 1011.3 |
| 20260504000226 | 45 | 22 | 0.0 | 0.0 | 0.00 | 0.01 | 0.01 | 48 | 1011.2 |
| 20260503235224 | 46 | 22 | 1.0 | 1.0 | 0.00 | 0.01 | 0.01 | 46 | 1011.2 |
| 20260503234324 | 47 | 22 | 0.0 | 0.0 | 0.00 | 0.01 | 0.01 | 44 | 1011.2 |
| 20260503231423 | 48 | 336 | 3.0 | 5.0 | 0.00 | 0.01 | 0.01 | 43 | 1010.9 |
| 20260503230423 | 48 | 346 | 4.0 | 7.0 | 0.00 | 0.01 | 0.01 | 43 | 1010.8 |
| 20260503225425 | 48 | 336 | 3.0 | 5.0 | 0.00 | 0.01 | 0.01 | 42 | 1010.6 |
| 20260503224424 | 48 | 338 | 3.0 | 8.0 | 0.00 | 0.01 | 0.01 | 43 | 1010.8 |
| 20260503223426 | 48 | 314 | 3.0 | 4.0 | 0.00 | 0.01 | 0.01 | 41 | 1010.6 |
| 20260503222425 | 49 | 295 | 3.0 | 7.0 | 0.00 | 0.01 | 0.01 | 42 | 1010.7 |
| 20260503221523 | 48 | 302 | 6.0 | 10.0 | 0.00 | 0.01 | 0.01 | 41 | 1010.7 |
| 20260503215624 | 49 | 315 | 1.0 | 3.0 | 0.00 | 0.01 | 0.01 | 41 | 1010.6 |
| 20260503214525 | 49 | 336 | 4.0 | 9.0 | 0.00 | 0.01 | 0.01 | 41 | 1010.5 |
| 20260503213624 | 49 | 231 | 2.0 | 4.0 | 0.00 | 0.02 | 0.01 | 40 | 1010.4 |
| 20260503212723 | 48 | 326 | 6.0 | 10.0 | 0.00 | 0.04 | 0.01 | 40 | 1010.5 |
| 20260503210725 | 50 | 313 | 1.0 | 6.0 | 0.00 | 0.04 | 0.01 | 40 | 1010.1 |
| 20260503204726 | 48 | 316 | 9.0 | 18.0 | 0.00 | 0.04 | 0.01 | 41 | 1010.1 |
| 20260503203726 | 48 | 298 | 4.0 | 8.0 | 0.00 | 0.04 | 0.01 | 40 | 1010.1 |
| 20260503202742 | 49 | 329 | 6.0 | 9.0 | 0.00 | 0.04 | 0.01 | 38 | 1009.9 |
| 20260503201824 | 49 | 272 | 5.0 | 8.0 | 0.00 | 0.04 | 0.01 | 40 | 1009.9 |
| 20260503201739 | 49 | 310 | 3.0 | 6.0 | 0.00 | 0.04 | 0.01 | 40 | 1010.1 |
| 20260503195743 | 49 | 316 | 6.0 | 9.0 | 0.00 | 0.04 | 0.01 | 39 | 1009.9 |
| 20260503194825 | 49 | 318 | 8.0 | 16.0 | 0.00 | 0.04 | 0.01 | 40 | 1009.7 |
| 20260503194724 | 49 | 325 | 9.0 | 15.0 | 0.00 | 0.04 | 0.01 | 40 | 1009.7 |
| 20260503192725 | 49 | 360 | 9.0 | 15.0 | 0.00 | 0.04 | 0.01 | 40 | 1009.7 |
| 20260503191725 | 49 | 278 | 9.0 | 18.0 | 0.00 | 0.04 | 0.01 | 41 | 1009.7 |
| 20260503190824 | 49 | 335 | 7.0 | 13.0 | 0.00 | 0.04 | 0.01 | 39 | 1009.7 |
| 20260503190724 | 49 | 318 | 4.0 | 7.0 | 0.00 | 0.04 | 0.01 | 40 | 1009.9 |
| 20260503185723 | 49 | 342 | 4.0 | 11.0 | 0.00 | 0.04 | 0.01 | 40 | 1009.5 |
| 20260503184725 | 49 | 347 | 5.0 | 10.0 | 0.00 | 0.04 | 0.01 | 39 | 1009.4 |
| 20260503182823 | 49 | 340 | 2.0 | 4.0 | 0.00 | 0.04 | 0.01 | 40 | 1009.6 |
| 20260503182725 | 49 | 347 | 3.0 | 8.0 | 0.00 | 0.04 | 0.01 | 40 | 1009.4 |
| 20260503181723 | 49 | 348 | 5.0 | 9.0 | 0.00 | 0.04 | 0.01 | 41 | 1009.7 |
| 20260503181623 | 49 | 5 | 4.0 | 8.0 | 0.00 | 0.04 | 0.01 | 41 | 1009.7 |
| 20260503180623 | 49 | 283 | 4.0 | 10.0 | 0.00 | 0.04 | 0.01 | 42 | 1009.8 |
| 20260503180524 | 49 | 320 | 4.0 | 7.0 | 0.00 | 0.04 | 0.01 | 41 | 1009.7 |
| 20260503175524 | 50 | 341 | 5.0 | 12.0 | 0.00 | 0.04 | 0.01 | 41 | 1009.6 |
| 20260503174526 | 50 | 346 | 5.0 | 8.0 | 0.00 | 0.04 | 0.01 | 42 | 1009.3 |
| 20260503173524 | 49 | 336 | 7.0 | 16.0 | 0.00 | 0.04 | 0.01 | 44 | 1009.3 |
| 20260503171526 | 51 | 286 | 9.0 | 14.0 | 0.00 | 0.04 | 0.01 | 45 | 1009.4 |
| 20260503150825 | 46 | 351 | 7.0 | 14.0 | 0.00 | 0.09 | 0.01 | 61 | 1009.7 |
| 20260503131126 | 41 | 342 | 4.0 | 7.0 | 0.00 | 0.09 | 0.01 | 80 | 1010.6 |
| 20260503130223 | 40 | 348 | 3.0 | 5.0 | 0.00 | 0.09 | 0.01 | 80 | 1010.6 |
| 20260503090225 | 38 | 316 | 4.0 | 6.0 | 0.00 | 0.16 | 0.00 | 89 | 1010.7 |
| 20260503080224 | 38 | 337 | 2.0 | 4.0 | 0.00 | 0.23 | 0.00 | 89 | 1011.5 |
| 20260503072224 | 38 | 343 | 2.0 | 3.0 | 0.00 | 0.24 | 0.00 | 90 | 1011.6 |
| 20260503071224 | 38 | 338 | 2.0 | 2.0 | 0.00 | 0.25 | 0.00 | 89 | 1011.7 |
| 20260503070225 | 38 | 336 | 2.0 | 3.0 | 0.00 | 0.25 | 0.00 | 91 | 1011.9 |
| 20260503060124 | 38 | 337 | 0.0 | 0.0 | 0.00 | 0.26 | 0.00 | 91 | 1012.5 |
| 20260503054124 | 38 | 360 | 0.0 | 0.0 | 0.00 | 0.26 | 0.00 | 91 | 1012.6 |
| 20260503053127 | 38 | 22 | 1.0 | 1.0 | 0.00 | 0.26 | 0.00 | 92 | 1012.7 |
| 20260503052223 | 38 | 22 | 2.0 | 2.0 | 0.00 | 0.26 | 0.00 | 91 | 1012.7 |
| 20260503051223 | 38 | 180 | 0.0 | 0.0 | 0.00 | 0.26 | 0.00 | 91 | 1013.1 |
| 20260503050225 | 38 | 180 | 0.0 | 0.0 | 0.00 | 0.26 | 0.00 | 91 | 1013.1 |
| 20260503045323 | 39 | 180 | 0.0 | 0.0 | 0.00 | 0.26 | 0.00 | 91 | 1013.1 |
| 20260503043325 | 39 | 22 | 0.0 | 0.0 | 0.00 | 0.26 | 0.00 | 90 | 1013.4 |
| 20260503042324 | 39 | 22 | 0.0 | 0.0 | 0.00 | 0.26 | 0.00 | 90 | 1013.4 |
| 20260503041324 | 40 | 22 | 0.0 | 0.0 | 0.00 | 0.26 | 0.00 | 88 | 1013.7 |
| 20260503041223 | 40 | 22 | 0.0 | 0.0 | 0.00 | 0.26 | 0.00 | 87 | 1013.8 |
| 20260503040239 | 40 | 337 | 0.0 | 0.0 | 0.00 | 0.26 | 0.00 | 88 | 1013.8 |
| 20260503040123 | 40 | 337 | 0.0 | 0.0 | 0.00 | 0.26 | 0.00 | 88 | 1013.7 |
| 20260503034129 | 40 | 180 | 2.0 | 3.0 | 0.00 | 0.26 | 0.26 | 86 | 1013.7 |
| 20260503033127 | 41 | 180 | 0.0 | 0.0 | 0.00 | 0.26 | 0.26 | 86 | 1013.8 |
| 20260503033029 | 41 | 180 | 0.0 | 0.0 | 0.00 | 0.26 | 0.26 | 86 | 1013.7 |
| 20260503032028 | 41 | 180 | 1.0 | 1.0 | 0.00 | 0.26 | 0.26 | 85 | 1013.9 |
| 20260503031929 | 41 | 180 | 1.0 | 1.0 | 0.00 | 0.26 | 0.26 | 85 | 1013.9 |
| 20260503024927 | 42 | 335 | 4.0 | 7.0 | 0.00 | 0.26 | 0.26 | 85 | 1013.8 |
| 20260503023928 | 42 | 327 | 3.0 | 5.0 | 0.00 | 0.26 | 0.26 | 86 | 1013.9 |
| 20260503022930 | 42 | 346 | 2.0 | 3.0 | 0.00 | 0.26 | 0.26 | 85 | 1013.9 |
| 20260503022827 | 42 | 350 | 3.0 | 4.0 | 0.00 | 0.26 | 0.26 | 86 | 1014.0 |
| 20260503022726 | 42 | 337 | 2.0 | 3.0 | 0.00 | 0.26 | 0.26 | 87 | 1014.0 |
| 20260503021628 | 42 | 320 | 3.0 | 5.0 | 0.00 | 0.26 | 0.26 | 88 | 1014.1 |
| 20260503021527 | 42 | 343 | 1.0 | 4.0 | 0.00 | 0.26 | 0.26 | 88 | 1014.1 |
| 20260503020527 | 42 | 337 | 1.0 | 2.0 | 0.00 | 0.26 | 0.26 | 89 | 1014.4 |
| 20260503015528 | 42 | 347 | 2.0 | 4.0 | 0.00 | 0.26 | 0.26 | 90 | 1014.2 |
| 20260503014528 | 42 | 348 | 0.0 | 2.0 | 0.00 | 0.26 | 0.26 | 90 | 1014.3 |
| 20260503013528 | 43 | 350 | 2.0 | 3.0 | 0.00 | 0.26 | 0.26 | 91 | 1014.1 |
| 20260503012527 | 43 | 180 | 1.0 | 2.0 | 0.00 | 0.26 | 0.26 | 90 | 1014.2 |
| 20260503012428 | 43 | 2 | 0.0 | 2.0 | 0.00 | 0.26 | 0.26 | 91 | 1014.2 |